Regional Weather Roundup
Issued by NWS Upton, NY

Current Version | Previous Version | Graphics & Text | Print | Product List | Glossary Off
Versions: 1 2 3 4 5 6 7 8 9 10 11 12 13 14 15 16 17 18 19 20 21 22 23 24 25 26 27 28 29 30 31 32 33 34 35 36 37 38 39 40 41 42 43 44 45 46 47 48 49 50

000
ASUS41 KOKX 260605
RWROKX

REGIONAL WEATHER ROUNDUP
NATIONAL WEATHER SERVICE NEW YORK NY
100 AM EST THU FEB 26 2015

NOTE: "FAIR" INDICATES FEW OR NO CLOUDS BELOW 12,000 FEET WITH NO
SIGNIFICANT WEATHER AND/OR OBSTRUCTIONS TO VISIBILITY.

NYZ071-072-176-178-NJZ106-104-260700-
NEW YORK CITY METRO AREA


CITY           SKY/WX    TMP DP  RH WIND       PRES   REMARKS
CENTRAL PARK   CLOUDY    31   5  33 E7        30.05R WCI  24
LAGUARDIA APRT CLOUDY    29   8  41 NE10      30.04R WCI  20
KENNEDY INTL   CLOUDY    31  11  43 NE8       30.04R WCI  23
NEWARK/LIBERTY CLOUDY    28  13  53 N13       30.03R WCI  17
BRNX BOT. GARD   N/A    N/A N/A N/A E6        30.06R
TETERBORO      CLOUDY    28   7  41 N7        30.03R WCI  21
$$

NYZ177-179-078>081-260700-
LONG ISLAND NEW YORK

CITY           SKY/WX    TMP DP  RH WIND       PRES   REMARKS
FARMINGDALE    CLOUDY    28  12  51 NE7       30.04R WCI  21
ISLIP          CLOUDY    27  12  53 NE7       30.03R WCI  19
SHIRLEY        MOCLDY    26  12  55 VRB3      30.05R
WESTHAMPTON    MOCLDY    26  10  50 N6        30.05R WCI  19
MONTAUK POINT    N/A     28   7  41 N13       30.04R WCI  17
$$

NYZ052-065-067-260700-
HUDSON VALLEY

CITY           SKY/WX    TMP DP  RH WIND       PRES   REMARKS
WHITE PLAINS   CLOUDY    24   1  36 N5        30.01R WCI  18
NEWBURGH       CLEAR     21   7  53 E6        30.03R WCI  14
MONTGOMERY     CLOUDY    18   3  52 N3        30.03R
POUGHKEEPSIE   MOCLDY    20   1  43 E5        30.06R WCI  13
ALBANY         MOCLDY    14   2  58 W8        30.09R WCI   3
$$

NJZ001-105-106-008-010-013-015-019>022-104-260700-
NEW JERSEY

CITY           SKY/WX    TMP DP  RH WIND       PRES   REMARKS
NEWARK/LIBERTY CLOUDY    28  13  53 N13       30.03R WCI  17
TETERBORO      CLOUDY    28   7  41 N7        30.03R WCI  21
CALDWELL       CLOUDY    25   7  46 NE5       30.03R WCI  19
MORRISTOWN     CLOUDY    21  16  79 CALM      30.03R
SOMERVILLE     CLOUDY    22  14  71 CALM      30.00R
SUSSEX         CLOUDY    21   4  47 N3        30.02R
ANDOVER          N/A     22   3  44 N6        30.00R WCI  14
TRENTON        CLOUDY    27  16  63 N3        29.99S
MILLVILLE      CLOUDY    29  22  75 CALM      29.97F
ATLANTIC CITY  CLOUDY    28  21  75 E3        29.98F
WRIGHTSTOWN    CLOUDY    26  20  81 E2        29.97F
TOMS RIVER     CLOUDY    27  18  69 CALM      30.00F
BELMAR         CLOUDY    28  14  54 CALM      29.99S
$$

PAZ047>061-062-071-260700-
EASTERN PENNSYLVANIA

CITY           SKY/WX    TMP DP  RH WIND       PRES   REMARKS
PHILADELPHIA   CLOUDY    29  21  72 E3        29.99F
ALLENTOWN      CLOUDY    24  12  60 NE5       29.99R WCI  18
SCRANTON       CLOUDY    16  -2  45 N15       30.00S WCI   1
$$

CTZ002-004>006-009-010-012-RIZ004-006-007-MAZ004-011-015-260700-
SOUTHERN NEW ENGLAND
 IN CT

CITY           SKY/WX    TMP DP  RH WIND       PRES   REMARKS
BRADLEY INTL   MOCLDY    20   1  43 NW5       30.04R WCI  13
HARTFORD       MOCLDY    20   2  45 N7        30.06R WCI  11
DANBURY        CLOUDY    20  -1  40 N7        30.03R WCI  11
WTRBRY/OXFORD  MOCLDY    18   0  45 N9        30.00S WCI   6
BRIDGEPORT     MOCLDY    24   6  46 N6        30.05R WCI  17
MERIDEN        MOCLDY    21   2  43 N5        30.05R WCI  15
NEW HAVEN      MOCLDY    22   6  50 N8        30.04R WCI  12
CHESTER        FAIR      23   3  42 N8        30.02R WCI  14
GROTON         MOCLDY    23   4  44 N12G23    30.03R WCI  12
WILLIMANTIC    MOCLDY    21   1  41 NW10      30.04R WCI  10

 IN RI

CITY           SKY/WX    TMP DP  RH WIND       PRES   REMARKS
PROVIDENCE     MOCLDY    24   0  35 NW13      30.02R WCI  12
BLOCK ISLAND   MOCLDY    27   5  39 N10G16    30.00R WCI  17
WESTERLY       MOCLDY    24   3  40 N10       30.03R WCI  14

 IN MA

CITY           SKY/WX    TMP DP  RH WIND       PRES   REMARKS
BOSTON         PTCLDY    21   4  47 W10       30.03R WCI  10
WORCESTER      PTCLDY    15  32 100 W15       29.96R WCI   0
WESTFIELD      PTCLDY    18   2  49 N5        30.04R WCI  11
PROVINCETOWN   PTCLDY    27  10  50 NW15      30.01R WCI  15
NANTUCKET      PTCLDY    28  16  60 N8        30.01R WCI  20
$$

ANZ330-335-338-340-345-350-353-355-260700-
COASTAL MARINE OBSERVATIONS


STATION/POSITION TIME  SKY/WX   TEMP    WIND        PRES    VSBY  WAVE
                                AIR SEA DIR/SP/G                  HT/PER
                 (UTC)          (F)     (DEG/KT/KT) (MB)    (MI)  (FT/S)
NY HARB ENTRANCE 0600            35 39  350/  6/  8 1016.6          1/11
4S FIRE IS       NOT AVBL
20S FIRE ISLAND  0500               35              1016.0          2/11
23SW MTP         0600                                 N/A           3/ 5
HUDSON CANYON    NOT AVBL
EXECUTION ROCKS  NOT AVBL
WESTERN LI SOUND NOT AVBL
CENTRAL LI SOUND NOT AVBL
EASTERN LI SOUND NOT AVBL
ROBBINS REEF     0600            31     360/  9/ 11 1015.4
$$


>>>>>>>>>>>>>>>>>>>>>>>>>>>> KEY <<<<<<<<<<<<<<<<<<<<<<<<<<<
>                                                          <
>     SKY/WX - SKY CONDITION/PRESENT WEATHER               <
>     TMP    - TEMPERATURE IN FAHRENHEIT                   <
>     DP     - DEWPOINT IN FAHRENHEIT                      <
>     RH     - RELATIVE HUMIDITY IN PERCENT                <
>     WIND   - DIRECTION AND SPEED IN MPH                  <
>     PRES   - MEAN SEA LEVEL PRESSURE IN INCHES OF HG     <
>     WCI    - WIND CHILL INDEX                            <
>     VSB    - VISIBILITY IN MILES                         <
>     HX     - HEAT INDEX                                  <
>     TC     - TEMPERATURE IN CELSIUS                      <
>     VRB    - VARIABLE WIND DIRECTION                     <
>                                                          <
>>>>>>>>>>>>>>>>>>>>>>>>>>>> KEY <<<<<<<<<<<<<<<<<<<<<<<<<<<





USA.gov is the U.S. government's official web portal to all federal, state and local government web resources and services.